sat.trackr.live / text

‹ back to catalog

STARLINK-5068

NORAD 55423 · 2023-014AJ

PAYLOAD ACTIVE UNKNOWN

§ Identity

Operator
Country
US
Launch date
2023-01-31
Launch site
AFWTR
Launch vehicle
Mass (kg)
RCS (m²)

Purposes: comms

External: N2YO · Heavens-Above · Gunter

§ Orbital elements

Epoch: 2026-05-25T05:17:34.955808Z

Period
96.11 min
Inclination
69.9992°
Eccentricity
0.0003098
Mean motion
14.98329211 rev/d
Perigee alt
569.9 km
Apogee alt
574.2 km
Semi-major
6,950.2 km
B*
-1.9861e-5
RAAN
251.5754°
Arg perigee
270.0244°
Mean anomaly
90.0560°
Rev number
18,302

§ Raw data

STARLINK-50681 55423U 23014AJ  26145.22054347 -.00000330  00000+0 -19861-4 0  99902 55423  69.9992 251.5754 0003098 270.0244  90.0560 14.98329211183027

JSON: /api/v1/satellites/55423 · /tle

For live sub-satellite position, see the globe view (requires WebGL).

§ Visibility from observer

Set your observer location to see the next 7 days of passes ≥ 10°. The values pass through the URL so the page stays shareable.

No JS? Fill the form by hand. The geolocation button needs JavaScript.